TimeEST,TemperatureF,Dew PointF,Humidity,Sea Level PressureIn,VisibilityMPH,Wind Direction,Wind SpeedMPH,Gust SpeedMPH,PrecipitationIn,Events,Conditions,WindDirDegrees,DateUTC
12:54 AM,48.0,45.0,89,30.42,10.0,Calm,Calm,-,N/A,,Clear,0,2013-01-10 05:54:00
1:54 AM,48.9,46.0,90,30.43,10.0,SW,3.5,-,N/A,,Clear,220,2013-01-10 06:54:00
2:54 AM,46.9,45.0,93,30.43,9.0,Calm,Calm,-,N/A,,Clear,0,2013-01-10 07:54:00
3:54 AM,48.0,46.0,93,30.43,10.0,Calm,Calm,-,N/A,,Clear,0,2013-01-10 08:54:00
4:54 AM,46.0,45.0,96,30.42,7.0,Calm,Calm,-,N/A,,Clear,0,2013-01-10 09:54:00
5:54 AM,44.1,43.0,96,30.44,6.0,Calm,Calm,-,N/A,,Clear,0,2013-01-10 10:54:00
6:54 AM,44.1,43.0,96,30.48,6.0,Calm,Calm,-,N/A,,Clear,0,2013-01-10 11:54:00
7:23 AM,42.8,41.0,93,30.48,2.5,Calm,Calm,-,N/A,,Clear,0,2013-01-10 12:23:00
7:31 AM,44.6,42.8,93,30.48,7.0,Calm,Calm,-,N/A,,Clear,0,2013-01-10 12:31:00
7:54 AM,41.0,41.0,100,30.50,4.0,Calm,Calm,-,N/A,,Clear,0,2013-01-10 12:54:00
8:54 AM,54.0,37.9,55,30.52,10.0,NNE,5.8,-,N/A,,Clear,20,2013-01-10 13:54:00
9:54 AM,55.9,35.1,45,30.53,10.0,NNE,9.2,-,N/A,,Clear,30,2013-01-10 14:54:00
10:54 AM,57.9,34.0,41,30.52,10.0,NNE,5.8,-,N/A,,Clear,20,2013-01-10 15:54:00
11:54 AM,61.0,33.1,35,30.49,10.0,NE,6.9,-,N/A,,Clear,50,2013-01-10 16:54:00
12:54 PM,62.1,33.1,34,30.46,10.0,ENE,4.6,-,N/A,,Clear,60,2013-01-10 17:54:00
1:54 PM,63.0,34.0,34,30.45,10.0,Variable,3.5,-,N/A,,Clear,0,2013-01-10 18:54:00
2:54 PM,63.0,35.1,35,30.44,10.0,NNE,4.6,-,N/A,,Clear,20,2013-01-10 19:54:00
3:54 PM,62.1,37.9,41,30.44,10.0,NNE,5.8,-,N/A,,Clear,30,2013-01-10 20:54:00
4:54 PM,60.1,39.9,47,30.45,10.0,East,3.5,-,N/A,,Clear,100,2013-01-10 21:54:00
5:54 PM,55.0,39.9,57,30.46,10.0,Calm,Calm,-,N/A,,Clear,0,2013-01-10 22:54:00
6:54 PM,52.0,41.0,66,30.46,10.0,Calm,Calm,-,N/A,,Clear,0,2013-01-10 23:54:00
7:54 PM,52.0,41.0,66,30.45,10.0,East,3.5,-,N/A,,Clear,90,2013-01-11 00:54:00
8:54 PM,48.0,39.9,74,30.45,10.0,Calm,Calm,-,N/A,,Clear,0,2013-01-11 01:54:00
9:54 PM,50.0,39.9,68,30.44,10.0,Calm,Calm,-,N/A,,Clear,0,2013-01-11 02:54:00
10:54 PM,46.9,39.0,74,30.43,10.0,NNE,3.5,-,N/A,,Mostly Cloudy,30,2013-01-11 03:54:00